This demonstration page uses our WeatherBlox Daily Observations layout. Learn more.

Left ArrowRight Arrow

38.20091, -84.87328

Hourly Observations for July 1, 2020

Temp ( °F °C ) Dew Point ( °F °C ) Humidity (%) Winds ( mph kmh ) Pressure ( in mb ) Visibility ( mi km ) Precip ( " mm )
12:53 am 00:53 Mostly Clear 73 22.8 69 20.6 87 87 Calm 29.89 1012 10 16 0.00 0.00
1:53 am 01:53 Mostly Clear 72 22.2 69 20.6 91 91 SW 3 6 29.87 1012 10 16 0.00 0.00
2:53 am 02:53 Cloudy 73 22.8 70 21.1 90 90 Calm 29.87 1012 10 16 0.00 0.00
3:53 am 03:53 Mostly Clear 73 22.8 70 21.1 90 90 Calm 29.86 1011 10 16 0.00 0.00
4:53 am 04:53 Clear 72 22.2 69 20.6 91 91 Calm 29.87 1012 10 16 0.00 0.00
5:53 am 05:53 Cloudy 72 22.2 69 20.6 91 91 Calm 29.88 1012 10 16 0.00 0.00
6:53 am 06:53 Partly Cloudy 72 22.2 69 20.6 91 91 Calm 29.89 1012 10 16 0.00 0.00
7:53 am 07:53 Mostly Cloudy 74 23.3 71 21.7 91 91 Calm 29.90 1012 10 16 0.00 0.00
8:53 am 08:53 Cloudy 75 23.9 71 21.7 88 88 Calm 29.91 1013 10 16 0.00 0.00
9:53 am 09:53 Partly Cloudy 77 25 71 21.7 82 82 Calm 29.91 1013 10 16 0.00 0.00
10:53 am 10:53 Partly Cloudy 81 27.2 72 22.2 74 74 Calm 29.91 1013 10 16 0.00 0.00
11:53 am 11:53 Mostly Sunny 85 29.4 71 21.7 63 63 VRB 3 6 29.91 1013 10 16 0.00 0.00
12:53 pm 12:53 Partly Cloudy 86 30 72 22.2 63 63 E 6 9 29.91 1013 10 16 0.00 0.00
1:53 pm 13:53 Mostly Cloudy 86 30 68 20 55 55 ENE 5 7 29.90 1013 10 16 0.00 0.00
2:53 pm 14:53 Sunny 82 27.8 72 22.2 72 72 W 8 13 29.90 1012 10 16 0.00 0.00
3:53 pm 15:53 Sunny 84 28.9 72 22.2 67 67 WSW 8 13 29.87 1012 10 16 0.00 0.00
4:53 pm 16:53 Sunny 85 29.4 70 21.1 61 61 SW 9 15 29.86 1011 10 16 0.00 0.00
5:53 pm 17:53 Sunny 85 29.4 73 22.8 68 68 SW 5 7 29.85 1011 10 16 0.00 0.00
6:53 pm 18:53 Sunny 85 29.4 71 21.7 63 63 WSW 3 6 29.84 1011 10 16 0.00 0.00
7:53 pm 19:53 Mostly Cloudy 82 27.8 72 22.2 72 72 SW 6 9 29.87 1012 10 16 0.00 0.00
8:53 pm 20:53 Mostly Cloudy 79 26.1 72 22.2 79 79 WSW 3 6 29.87 1011 10 16 0.00 0.00
9:53 pm 21:53 Clear 78 25.6 71 21.7 79 79 Calm 29.88 1012 10 16 0.00 0.00
10:53 pm 22:53 Clear 76 24.4 71 21.7 85 85 Calm 29.89 1012 10 16 0.00 0.00
11:53 pm 23:53 Clear 75 23.9 71 21.7 88 88 NW 3 6 29.89 1012 10 16 0.00 0.00

Powered by AerisWeather